Location: Arlington
(40.6323°N, 74.1651°W)
Time: 19:36:30
(UTC+00:00)

USA 215 - Pass Details

Date: 22 November 2019
Orbit: 1101 x 1107 km, 123.0° (Epoch: 11 December)

Event Time Altitude Azimuth Distance (km) Brightness Sun altitude
Exits shadow 23:29:28 22° 32° (NNE) 2,196 4.5 -21.7°
Maximum altitude 23:30:56 24° 13° (NNE) 2,110 4.5 -21.9°
Drops below altitude 10° 23:35:54 10° 324° (NW) 2,963 5.9 -22.9°
Sets 23:38:52 0° 311° (NW) 3,922 6.8 -23.4°
